• în România
  • Lista ţărilor
  • Pe 7 zile
  • Temperatura apei
  • Hartă satelitară
  • Meteo pe hartă
  • Widget-uri
  • user-avatar
    Intrare

    Meteo pe oră la Zbudovo

    Astăzi, 17 Iulie, Marţi

    Timp Temperatura Precipitaţii Vânt Presiune Umiditate
    00:00 +19°C° 0 mm 2 m/s 746 mmHg 84%
    01:00 +18°C° 0 mm 2 m/s 746 mmHg 85%
    02:00 +18°C° 0 mm 2 m/s 746 mmHg 87%
    03:00 +18°C° 0 mm 3 m/s 746 mmHg 84%
    04:00 +19°C° 0 mm 3 m/s 746 mmHg 82%
    05:00 +19°C° 0 mm 3 m/s 746 mmHg 79%
    06:00 +21°C° 0 mm 4 m/s 746 mmHg 72%
    07:00 +23°C° 0 mm 4 m/s 746 mmHg 64%
    08:00 +26°C° 0 mm 5 m/s 746 mmHg 57%
    09:00 +27°C° 0 mm 5 m/s 746 mmHg 53%
    10:00 +28°C° 0 mm 5 m/s 746 mmHg 49%
    11:00 +29°C° 0 mm 5 m/s 745 mmHg 45%
    12:00 +29°C° 0 mm 5 m/s 745 mmHg 43%
    13:00 +29°C° 0 mm 5 m/s 745 mmHg 42%
    14:00 +30°C° 0 mm 5 m/s 744 mmHg 41%
    15:00 +29°C° 0 mm 5 m/s 744 mmHg 43%
    16:00 +29°C° 0 mm 5 m/s 744 mmHg 45%
    17:00 +29°C° 0 mm 4 m/s 744 mmHg 47%
    18:00 +27°C° 0 mm 4 m/s 744 mmHg 52%
    19:00 +25°C° 0 mm 3 m/s 744 mmHg 58%
    20:00 +24°C° 0 mm 3 m/s 744 mmHg 64%
    21:00 +22°C° 0 mm 3 m/s 743 mmHg 65%
    22:00 +21°C° 0 mm 3 m/s 743 mmHg 66%
    23:00 +21°C° 0 mm 3 m/s 743 mmHg 67%

    Mâine, 18 Iulie, Miercuri

    Timp Temperatura Precipitaţii Vânt Presiune Umiditate
    00:00 +21°C° 0 mm 3 m/s 743 mmHg 69%
    01:00 +20°C° 0 mm 4 m/s 743 mmHg 71%
    02:00 +20°C° 0 mm 4 m/s 743 mmHg 72%
    03:00 +20°C° 0,1 mm 4 m/s 743 mmHg 74%
    04:00 +20°C° 0,1 mm 4 m/s 743 mmHg 76%
    05:00 +19°C° 0,1 mm 4 m/s 743 mmHg 78%
    06:00 +21°C° 0,1 mm 5 m/s 743 mmHg 74%
    07:00 +22°C° 0,1 mm 5 m/s 743 mmHg 69%
    08:00 +23°C° 0,1 mm 5 m/s 743 mmHg 65%
    09:00 +25°C° 0 mm 5 m/s 743 mmHg 61%
    10:00 +26°C° 0 mm 5 m/s 743 mmHg 58%
    11:00 +27°C° 0 mm 5 m/s 743 mmHg 54%
    12:00 +27°C° 0,8 mm 5 m/s 742 mmHg 59%
    13:00 +27°C° 0,8 mm 5 m/s 742 mmHg 65%
    14:00 +27°C° 0,8 mm 4 m/s 742 mmHg 70%
    15:00 +26°C° 0,6 mm 4 m/s 742 mmHg 73%
    16:00 +25°C° 0,6 mm 4 m/s 742 mmHg 76%
    17:00 +25°C° 0,6 mm 4 m/s 742 mmHg 79%
    18:00 +23°C° 0,1 mm 4 m/s 742 mmHg 80%
    19:00 +22°C° 0,1 mm 4 m/s 742 mmHg 81%
    20:00 +21°C° 0,1 mm 4 m/s 742 mmHg 83%
    21:00 +20°C° 0 mm 4 m/s 742 mmHg 83%
    22:00 +20°C° 0 mm 4 m/s 742 mmHg 84%
    23:00 +19°C° 0 mm 4 m/s 742 mmHg 85%

    Poimâine, 19 Iulie, Joi

    Timp Temperatura Precipitaţii Vânt Presiune Umiditate
    00:00 +19°C° 0 mm 4 m/s 742 mmHg 85%
    01:00 +19°C° 0 mm 4 m/s 742 mmHg 84%
    02:00 +19°C° 0 mm 3 m/s 742 mmHg 84%
    03:00 +20°C° 0 mm 4 m/s 742 mmHg 83%
    04:00 +20°C° 0 mm 4 m/s 742 mmHg 83%
    05:00 +20°C° 0 mm 4 m/s 742 mmHg 82%
    06:00 +21°C° 0 mm 4 m/s 742 mmHg 79%
    07:00 +21°C° 0 mm 4 m/s 742 mmHg 76%
    08:00 +22°C° 0 mm 5 m/s 742 mmHg 72%
    09:00 +23°C° 0 mm 5 m/s 742 mmHg 72%
    10:00 +23°C° 0 mm 5 m/s 742 mmHg 72%
    11:00 +23°C° 0 mm 4 m/s 742 mmHg 71%
    12:00 +23°C° 0,1 mm 5 m/s 742 mmHg 71%
    13:00 +25°C° 0,1 mm 5 m/s 742 mmHg 70%
    14:00 +25°C° 0,1 mm 5 m/s 742 mmHg 70%
    15:00 +25°C° 0,2 mm 5 m/s 742 mmHg 72%
    16:00 +25°C° 0,2 mm 4 m/s 742 mmHg 74%
    17:00 +25°C° 0,2 mm 4 m/s 742 mmHg 76%
    18:00 +23°C° 0,1 mm 4 m/s 742 mmHg 80%
    19:00 +22°C° 0,1 mm 3 m/s 741 mmHg 84%
    20:00 +21°C° 0,1 mm 3 m/s 741 mmHg 88%
    21:00 +20°C° 0 mm 3 m/s 741 mmHg 90%
    22:00 +20°C° 0 mm 3 m/s 741 mmHg 92%
    23:00 +19°C° 0 mm 4 m/s 741 mmHg 94%

    20 Iulie, Vineri

    Timp Temperatura Precipitaţii Vânt Presiune Umiditate
    00:00 +19°C° 0 mm 3 m/s 741 mmHg 95%
    01:00 +19°C° 0 mm 3 m/s 741 mmHg 96%
    02:00 +19°C° 0 mm 3 m/s 741 mmHg 97%
    03:00 +19°C° 0 mm 4 m/s 741 mmHg 95%
    04:00 +19°C° 0 mm 4 m/s 741 mmHg 94%
    05:00 +19°C° 0 mm 4 m/s 741 mmHg 93%
    06:00 +20°C° 0 mm 4 m/s 742 mmHg 92%
    07:00 +20°C° 0 mm 4 m/s 742 mmHg 90%
    08:00 +21°C° 0 mm 4 m/s 742 mmHg 88%
    09:00 +21°C° 0,2 mm 4 m/s 742 mmHg 86%
    10:00 +22°C° 0,2 mm 4 m/s 742 mmHg 84%
    11:00 +22°C° 0,2 mm 4 m/s 742 mmHg 82%
    12:00 +23°C° 0,8 mm 4 m/s 742 mmHg 81%
    13:00 +25°C° 0,8 mm 4 m/s 742 mmHg 80%
    14:00 +25°C° 0,8 mm 5 m/s 742 mmHg 79%
    15:00 +25°C° 0,8 mm 4 m/s 742 mmHg 80%
    16:00 +25°C° 0,8 mm 4 m/s 741 mmHg 82%
    17:00 +25°C° 0,8 mm 4 m/s 741 mmHg 83%
    18:00 +24°C° 1,1 mm 3 m/s 741 mmHg 86%
    19:00 +22°C° 1,1 mm 3 m/s 741 mmHg 89%
    20:00 +21°C° 1,1 mm 3 m/s 741 mmHg 91%
    21:00 +21°C° 0,4 mm 3 m/s 741 mmHg 93%
    22:00 +20°C° 0,4 mm 3 m/s 741 mmHg 95%
    23:00 +20°C° 0,4 mm 2 m/s 741 mmHg 96%

    21 Iulie, Sâmbătă

    Timp Temperatura Precipitaţii Vânt Presiune Umiditate
    00:00 +20°C° 0 mm 2 m/s 741 mmHg 97%
    01:00 +19°C° 0 mm 3 m/s 741 mmHg 97%
    02:00 +19°C° 0 mm 3 m/s 741 mmHg 98%
    03:00 +19°C° 0 mm 3 m/s 741 mmHg 97%
    04:00 +19°C° 0 mm 3 m/s 741 mmHg 97%
    05:00 +20°C° 0 mm 3 m/s 741 mmHg 96%
    06:00 +21°C° 0 mm 3 m/s 741 mmHg 93%
    07:00 +22°C° 0 mm 3 m/s 741 mmHg 89%
    08:00 +24°C° 0 mm 3 m/s 741 mmHg 85%
    09:00 +25°C° 0,4 mm 4 m/s 741 mmHg 82%
    10:00 +26°C° 0,4 mm 4 m/s 741 mmHg 79%
    11:00 +27°C° 0,4 mm 4 m/s 741 mmHg 76%
    12:00 +27°C° 0,9 mm 4 m/s 741 mmHg 76%
    13:00 +28°C° 0,9 mm 4 m/s 741 mmHg 75%
    14:00 +28°C° 0,9 mm 4 m/s 741 mmHg 75%
    15:00 +27°C° 0,8 mm 4 m/s 741 mmHg 78%
    16:00 +26°C° 0,8 mm 4 m/s 741 mmHg 82%
    17:00 +25°C° 0,8 mm 4 m/s 741 mmHg 86%
    18:00 +25°C° 0,1 mm 3 m/s 741 mmHg 87%
    19:00 +24°C° 0,1 mm 3 m/s 740 mmHg 89%
    20:00 +22°C° 0,1 mm 3 m/s 740 mmHg 91%
    21:00 +22°C° 0,1 mm 3 m/s 740 mmHg 92%
    22:00 +21°C° 0,1 mm 3 m/s 740 mmHg 93%
    23:00 +21°C° 0,1 mm 3 m/s 740 mmHg 94%

    22 Iulie, Duminică

    Timp Temperatura Precipitaţii Vânt Presiune Umiditate
    00:00 +20°C° 0,4 mm 3 m/s 740 mmHg 95%
    01:00 +20°C° 0,4 mm 3 m/s 740 mmHg 96%
    02:00 +20°C° 0,4 mm 3 m/s 740 mmHg 97%
    03:00 +20°C° 0,1 mm 3 m/s 740 mmHg 97%
    04:00 +20°C° 0,1 mm 3 m/s 740 mmHg 97%
    05:00 +20°C° 0,1 mm 3 m/s 740 mmHg 97%
    06:00 +21°C° 0 mm 3 m/s 740 mmHg 94%
    07:00 +22°C° 0 mm 4 m/s 740 mmHg 91%
    08:00 +23°C° 0 mm 4 m/s 740 mmHg 89%
    09:00 +23°C° 0,4 mm 4 m/s 740 mmHg 88%
    10:00 +25°C° 0,4 mm 4 m/s 741 mmHg 86%
    11:00 +26°C° 0,4 mm 4 m/s 741 mmHg 85%
    12:00 +26°C° 0,9 mm 4 m/s 740 mmHg 83%
    13:00 +27°C° 0,9 mm 4 m/s 740 mmHg 81%
    14:00 +27°C° 0,9 mm 4 m/s 740 mmHg 79%
    15:00 +27°C° 0,8 mm 3 m/s 740 mmHg 81%
    16:00 +27°C° 0,8 mm 3 m/s 740 mmHg 83%
    17:00 +26°C° 0,8 mm 3 m/s 740 mmHg 85%
    18:00 +25°C° 1 mm 2 m/s 740 mmHg 88%
    19:00 +24°C° 1 mm 2 m/s 740 mmHg 91%
    20:00 +23°C° 1 mm 2 m/s 740 mmHg 94%
    21:00 +23°C° 1 mm 2 m/s 740 mmHg 95%
    22:00 +21°C° 1 mm 2 m/s 740 mmHg 96%
    23:00 +21°C° 1 mm 2 m/s 740 mmHg 97%
    Arată mai mult